TimeCDT,TemperatureF,Dew PointF,Humidity,Sea Level PressureIn,VisibilityMPH,Wind Direction,Wind SpeedMPH,Gust SpeedMPH,PrecipitationIn,Events,Conditions,WindDirDegrees,DateUTC
12:15 AM,59.7,52.3,77,30.15,10.0,North,6.9,-,N/A,,Overcast,350,2012-10-08 05:15:00
12:35 AM,59.9,52.3,76,30.15,10.0,NNW,6.9,-,N/A,,Overcast,340,2012-10-08 05:35:00
12:55 AM,59.9,52.2,76,30.16,10.0,North,5.8,-,N/A,,Overcast,350,2012-10-08 05:55:00
1:15 AM,60.1,51.6,74,30.16,10.0,North,10.4,-,N/A,,Overcast,350,2012-10-08 06:15:00
1:35 AM,59.9,51.3,73,30.16,10.0,North,9.2,-,N/A,,Overcast,350,2012-10-08 06:35:00
1:55 AM,59.9,51.3,73,30.16,10.0,North,8.1,-,N/A,,Overcast,350,2012-10-08 06:55:00
2:15 AM,59.9,51.3,73,30.16,10.0,North,6.9,-,N/A,,Overcast,350,2012-10-08 07:15:00
2:35 AM,59.9,51.1,73,30.16,10.0,North,9.2,-,N/A,,Overcast,360,2012-10-08 07:35:00
2:55 AM,59.5,50.9,73,30.16,10.0,North,8.1,-,N/A,,Overcast,360,2012-10-08 07:55:00
3:15 AM,59.4,50.5,73,30.15,10.0,North,8.1,-,N/A,,Overcast,360,2012-10-08 08:15:00
3:35 AM,59.2,50.5,73,30.15,10.0,North,9.2,-,N/A,,Overcast,360,2012-10-08 08:35:00
3:55 AM,59.0,50.5,73,30.15,10.0,North,9.2,-,N/A,,Overcast,360,2012-10-08 08:55:00
4:15 AM,59.0,50.4,73,30.14,10.0,North,11.5,-,N/A,,Overcast,360,2012-10-08 09:15:00
4:35 AM,57.2,50.0,77,30.14,10.0,North,9.2,-,N/A,,Overcast,360,2012-10-08 09:35:00
4:55 AM,58.3,50.2,74,30.14,10.0,North,10.4,-,N/A,,Overcast,360,2012-10-08 09:55:00
5:15 AM,58.3,50.2,74,30.15,10.0,North,6.9,-,N/A,,Overcast,350,2012-10-08 10:15:00
5:35 AM,58.1,50.2,75,30.16,10.0,North,9.2,-,N/A,,Overcast,360,2012-10-08 10:35:00
5:55 AM,57.7,50.0,75,30.16,10.0,North,8.1,-,N/A,,Overcast,350,2012-10-08 10:55:00
6:15 AM,57.7,50.0,75,30.16,10.0,North,6.9,-,N/A,,Overcast,350,2012-10-08 11:15:00
6:35 AM,57.6,50.0,76,30.17,10.0,North,10.4,-,N/A,,Overcast,350,2012-10-08 11:35:00
6:55 AM,57.2,49.8,76,30.17,10.0,North,8.1,-,N/A,,Overcast,360,2012-10-08 11:55:00
7:15 AM,57.2,49.6,76,30.17,10.0,North,10.4,-,N/A,,Overcast,360,2012-10-08 12:15:00
7:35 AM,57.2,49.3,75,30.18,10.0,North,8.1,-,N/A,,Overcast,360,2012-10-08 12:35:00
7:55 AM,57.4,49.3,74,30.18,10.0,North,8.1,-,N/A,,Overcast,360,2012-10-08 12:55:00
8:15 AM,57.6,49.3,74,30.19,10.0,North,6.9,-,N/A,,Overcast,360,2012-10-08 13:15:00
8:35 AM,57.7,49.3,73,30.19,10.0,North,8.1,-,N/A,,Overcast,10,2012-10-08 13:35:00
8:55 AM,58.3,49.5,72,30.19,10.0,North,11.5,-,N/A,,Overcast,10,2012-10-08 13:55:00
9:15 AM,58.6,49.5,72,30.19,10.0,North,10.4,-,N/A,,Overcast,10,2012-10-08 14:15:00
9:35 AM,59.0,50.0,72,30.20,10.0,NNE,9.2,-,N/A,,Overcast,20,2012-10-08 14:35:00
9:55 AM,59.5,50.2,71,30.21,10.0,North,10.4,-,N/A,,Overcast,360,2012-10-08 14:55:00
10:15 AM,60.1,50.4,70,30.21,10.0,North,9.2,-,N/A,,Overcast,10,2012-10-08 15:15:00
10:35 AM,61.7,50.7,67,30.21,10.0,North,11.5,17.3,N/A,,Overcast,10,2012-10-08 15:35:00
10:55 AM,63.0,51.1,65,30.21,10.0,North,8.1,-,N/A,,Overcast,10,2012-10-08 15:55:00
11:15 AM,64.6,51.4,62,30.20,10.0,North,11.5,-,N/A,,Overcast,350,2012-10-08 16:15:00
11:35 AM,65.8,52.3,62,30.20,10.0,North,5.8,-,N/A,,Overcast,350,2012-10-08 16:35:00
11:55 AM,66.4,52.3,61,30.19,10.0,North,6.9,-,N/A,,Overcast,10,2012-10-08 16:55:00
12:15 PM,66.2,52.3,61,30.19,10.0,NNE,10.4,-,N/A,,Overcast,30,2012-10-08 17:15:00
12:35 PM,64.4,51.8,64,30.19,10.0,North,9.2,-,N/A,,Overcast,360,2012-10-08 17:35:00
12:55 PM,65.5,52.2,62,30.18,10.0,North,6.9,-,N/A,,Overcast,10,2012-10-08 17:55:00
1:15 PM,65.3,52.5,63,30.17,10.0,NNE,5.8,-,N/A,,Overcast,20,2012-10-08 18:15:00
1:35 PM,65.5,52.5,63,30.17,10.0,North,8.1,-,N/A,,Overcast,360,2012-10-08 18:35:00
1:55 PM,66.0,52.9,63,30.16,10.0,NE,6.9,-,N/A,,Overcast,50,2012-10-08 18:55:00
2:15 PM,67.5,53.1,60,30.15,10.0,NE,4.6,-,N/A,,Overcast,40,2012-10-08 19:15:00
2:35 PM,67.5,53.2,60,30.14,10.0,NNE,6.9,-,N/A,,Overcast,20,2012-10-08 19:35:00
2:55 PM,68.0,53.6,60,30.13,10.0,NNE,4.6,-,N/A,,Overcast,20,2012-10-08 19:55:00
3:15 PM,68.4,53.6,59,30.12,10.0,NE,6.9,-,N/A,,Overcast,50,2012-10-08 20:15:00
3:35 PM,68.9,54.0,59,30.11,10.0,NNE,5.8,-,N/A,,Overcast,20,2012-10-08 20:35:00
3:55 PM,68.9,54.0,59,30.12,10.0,NE,6.9,-,N/A,,Overcast,50,2012-10-08 20:55:00
4:15 PM,69.6,54.3,58,30.11,10.0,ENE,8.1,-,N/A,,Overcast,60,2012-10-08 21:15:00
4:35 PM,70.5,54.5,57,30.11,10.0,ENE,4.6,-,N/A,,Mostly Cloudy,70,2012-10-08 21:35:00
4:55 PM,70.3,55.0,58,30.11,10.0,NE,4.6,-,N/A,,Mostly Cloudy,40,2012-10-08 21:55:00
5:15 PM,70.5,54.9,58,30.10,10.0,NNE,4.6,-,N/A,,Scattered Clouds,30,2012-10-08 22:15:00
5:35 PM,69.4,55.0,60,30.10,10.0,East,3.5,-,N/A,,Mostly Cloudy,100,2012-10-08 22:35:00
5:55 PM,69.3,55.6,62,30.09,10.0,East,4.6,-,N/A,,Overcast,90,2012-10-08 22:55:00
6:15 PM,70.2,55.4,59,30.10,10.0,Calm,Calm,-,N/A,,Scattered Clouds,0,2012-10-08 23:15:00
6:35 PM,68.9,55.6,62,30.10,10.0,Calm,Calm,-,N/A,,Clear,0,2012-10-08 23:35:00
6:55 PM,66.9,56.1,68,30.09,10.0,Calm,Calm,-,N/A,,Clear,0,2012-10-08 23:55:00
7:15 PM,64.9,56.3,74,30.10,10.0,Calm,Calm,-,N/A,,Clear,0,2012-10-09 00:15:00
7:35 PM,63.9,56.1,76,30.10,10.0,Calm,Calm,-,N/A,,Clear,0,2012-10-09 00:35:00
7:55 PM,62.2,56.3,81,30.10,10.0,Calm,Calm,-,N/A,,Scattered Clouds,0,2012-10-09 00:55:00
8:15 PM,60.1,57.7,92,30.11,10.0,Calm,Calm,-,N/A,,Mostly Cloudy,0,2012-10-09 01:15:00
8:35 PM,59.0,59.0,100,30.11,10.0,Calm,Calm,-,N/A,,Mostly Cloudy,0,2012-10-09 01:35:00
8:55 PM,60.8,60.8,100,30.11,10.0,Calm,Calm,-,N/A,,Overcast,0,2012-10-09 01:55:00
9:15 PM,60.8,60.8,100,30.12,10.0,Calm,Calm,-,N/A,,Overcast,0,2012-10-09 02:15:00
9:35 PM,60.8,60.8,100,30.12,10.0,Calm,Calm,-,N/A,,Overcast,0,2012-10-09 02:35:00
9:55 PM,61.7,61.7,100,30.13,10.0,Calm,Calm,-,N/A,,Overcast,0,2012-10-09 02:55:00
10:15 PM,62.1,62.1,100,30.12,10.0,Calm,Calm,-,N/A,,Overcast,0,2012-10-09 03:15:00
10:35 PM,61.7,61.7,100,30.12,10.0,Calm,Calm,-,N/A,,Overcast,0,2012-10-09 03:35:00
10:55 PM,61.9,61.9,100,30.12,10.0,Calm,Calm,-,N/A,,Overcast,0,2012-10-09 03:55:00
11:35 PM,62.4,62.4,100,30.12,10.0,Calm,Calm,-,N/A,,Overcast,0,2012-10-09 04:35:00
11:55 PM,63.0,63.0,100,30.11,10.0,Calm,Calm,-,N/A,,Overcast,0,2012-10-09 04:55:00